period_start,C,m1,H,J0,J1,J2,J3,J4,J5,JA,JB,JC,JD,JJ,JK,JN,#
2015-07-11 00:00:00,0.00,0.33,0.00,31.27,35.27,37.65,4.65,25.68,1009.79,2002.99,3273.00,3164.97,3432.00,350.02,336.03,16.44,0000 0000 0000 0000 000000
2015-07-11 00:05:01,-0.00,0.33,0.00,31.27,35.27,37.65,4.58,25.55,1009.82,2002.99,3272.99,3164.95,3432.00,349.84,335.90,16.46,0000 0000 0000 0000 000000
2015-07-11 00:10:02,0.00,0.33,0.00,31.27,35.26,37.64,4.59,25.65,1009.81,2002.99,3272.99,3164.94,3432.00,349.99,336.06,16.49,0000 0000 0000 0000 000000
2015-07-11 00:15:04,0.01,0.33,0.00,31.27,35.25,37.64,4.60,25.73,1009.92,2002.99,3272.96,3164.90,3432.00,349.81,336.04,16.52,0000 0000 0000 0000 000000
2015-07-11 00:20:05,0.02,0.33,0.00,31.27,35.25,37.62,4.58,25.67,1010.05,2002.99,3272.77,3164.68,3431.95,349.91,336.11,16.55,0000 0000 0000 0000 000000
2015-07-11 00:25:06,0.02,0.33,0.00,31.27,35.25,37.63,4.59,25.55,1010.22,2002.99,3272.27,3164.32,3431.81,350.11,336.18,16.58,0000 0000 0000 0000 000000
2015-07-11 00:30:08,0.01,0.33,0.00,31.27,35.25,37.62,4.59,25.64,1010.18,2002.99,3272.21,3164.33,3431.74,349.65,335.57,16.61,0000 0000 0000 0000 000000
2015-07-11 00:35:09,0.03,0.33,0.00,31.27,35.25,37.62,4.63,25.73,1010.21,2002.99,3272.00,3164.03,3431.07,350.11,336.04,16.64,0000 0000 0000 0000 000000
2015-07-11 00:40:10,0.02,0.33,0.00,31.28,35.25,37.61,4.71,25.82,1010.17,2002.99,3271.56,3163.99,3430.99,350.21,336.25,16.67,0000 0000 0000 0000 000000
2015-07-11 00:45:12,0.01,0.33,0.00,31.27,35.25,37.62,4.59,25.67,1010.25,2002.99,3271.29,3163.95,3430.92,349.56,335.96,16.70,0000 0000 0000 0000 000000
2015-07-11 00:50:13,0.03,0.33,0.00,31.27,35.25,37.62,4.63,25.62,1010.27,2002.99,3271.05,3163.75,3430.50,350.13,336.16,16.73,0000 0000 0000 0000 000000
2015-07-11 00:55:14,0.02,0.33,0.00,31.28,35.24,37.61,4.56,25.71,1010.27,2002.99,3271.00,3163.26,3430.08,349.83,336.00,16.76,0000 0000 0000 0000 000000
2015-07-11 01:00:15,0.02,0.33,0.00,31.28,35.24,37.61,4.61,25.67,1010.26,2002.99,3270.82,3163.05,3430.01,349.80,335.93,16.79,0000 0000 0000 0000 000000
2015-07-11 01:05:16,0.01,0.33,0.00,31.28,35.24,37.61,4.63,25.61,1010.20,2002.99,3270.16,3163.00,3429.99,350.03,336.39,16.82,0000 0000 0000 0000 000000
2015-07-11 01:10:18,0.01,0.33,0.00,31.28,35.23,37.61,4.58,25.59,1010.25,2002.99,3270.01,3162.99,3429.74,349.70,335.95,16.85,0000 0000 0000 0000 000000
2015-07-11 01:15:19,0.01,0.33,0.00,31.29,35.23,37.60,4.64,25.58,1010.21,2002.99,3269.98,3162.93,3429.17,350.34,336.60,16.87,0000 0000 0000 0000 000000
2015-07-11 01:20:20,0.01,0.34,0.00,31.30,35.23,37.60,4.58,25.51,1010.26,2002.99,3269.86,3162.78,3429.03,349.72,335.83,16.90,0000 0000 0000 0000 000000
2015-07-11 01:25:22,0.03,0.34,0.00,31.30,35.23,37.60,4.67,25.63,1010.26,2003.00,3269.27,3162.40,3429.00,350.20,336.16,16.93,0000 0000 0000 0000 000000
2015-07-11 01:30:23,0.01,0.34,0.00,31.30,35.23,37.60,4.56,25.58,1010.26,2003.01,3269.03,3162.11,3428.99,349.53,335.70,16.96,0000 0000 0000 0000 000000
2015-07-11 01:35:24,0.01,0.34,0.00,31.31,35.23,37.60,4.64,25.54,1010.26,2003.01,3268.98,3162.01,3428.49,350.11,336.44,16.99,0000 0000 0000 0000 000000
2015-07-11 01:40:25,0.03,0.34,0.00,31.32,35.23,37.61,4.61,25.73,1010.24,2003.00,3268.37,3161.99,3428.05,349.64,335.72,17.02,0000 0000 0000 0000 000000
2015-07-11 01:45:26,0.01,0.34,0.00,31.32,35.23,37.60,4.59,25.49,1010.26,2003.00,3268.03,3161.82,3427.99,349.86,335.88,17.05,0000 0000 0000 0000 000000
2015-07-11 01:50:28,0.04,0.34,0.00,31.33,35.24,37.60,4.64,25.57,1010.24,2003.01,3267.98,3161.26,3427.85,350.31,336.38,17.08,0000 0000 0000 0000 000000
2015-07-11 01:55:29,0.05,0.34,0.00,31.35,35.24,37.60,4.62,25.57,1010.19,2003.02,3267.39,3160.93,3427.11,350.23,336.13,17.11,0000 0000 0000 0000 000000
2015-07-11 02:00:30,0.06,0.34,0.00,31.35,35.25,37.61,4.62,25.60,1010.09,2003.01,3266.88,3160.16,3426.26,349.77,335.76,17.14,0000 0000 0000 0000 000000
2015-07-11 02:05:31,0.02,0.34,0.00,31.36,35.25,37.60,4.62,25.67,1009.97,2003.04,3266.18,3160.00,3426.00,350.18,336.05,17.17,0000 0000 0000 0000 000000
2015-07-11 02:10:33,0.00,0.34,0.00,31.37,35.25,37.60,4.63,25.60,1009.89,2003.00,3266.00,3159.97,3425.95,349.80,335.84,17.20,0000 0000 0000 0000 000000
2015-07-11 02:15:34,0.04,0.35,0.00,31.37,35.25,37.61,4.58,25.58,1010.14,2003.02,3265.77,3159.69,3425.46,349.96,335.98,17.23,0000 0000 0000 0000 000000
2015-07-11 02:20:36,0.04,0.35,0.00,31.38,35.25,37.61,4.62,25.72,1010.00,2003.00,3265.06,3159.04,3424.99,350.43,336.24,17.26,0000 0000 0000 0000 000000
2015-07-11 02:25:37,0.03,0.35,0.00,31.39,35.25,37.61,4.57,25.54,1009.91,2003.01,3264.82,3158.90,3424.50,350.28,336.08,17.28,0000 0000 0000 0000 000000
2015-07-11 02:30:39,0.06,0.35,0.00,31.40,35.25,37.62,4.61,25.57,1009.97,2003.00,3264.05,3158.19,3424.02,350.06,335.74,17.31,0000 0000 0000 0000 000000
2015-07-11 02:35:40,0.03,0.35,0.00,31.40,35.25,37.62,4.61,25.59,1009.93,2003.02,3263.83,3158.00,3423.77,349.73,335.64,17.34,0000 0000 0000 0000 000000
2015-07-11 02:40:41,0.06,0.35,0.00,31.42,35.26,37.62,4.60,25.72,1009.92,2003.00,3263.05,3157.48,3423.03,350.50,336.22,17.37,0000 0000 0000 0000 000000
2015-07-11 02:45:43,0.03,0.35,0.00,31.42,35.27,37.63,4.62,25.55,1009.93,2003.00,3262.75,3157.01,3422.56,350.36,336.19,17.40,0000 0000 0000 0000 000000
2015-07-11 02:50:44,0.03,0.35,0.00,31.43,35.27,37.63,4.62,25.59,1009.95,2003.00,3262.09,3156.89,3422.03,350.09,335.94,17.43,0000 0000 0000 0000 000000
2015-07-11 02:55:45,0.03,0.36,0.00,31.45,35.27,37.63,4.64,25.58,1009.93,2003.00,3261.96,3156.27,3421.85,350.23,336.17,17.46,0000 0000 0000 0000 000000
2015-07-11 03:00:47,0.05,0.36,0.00,31.46,35.28,37.64,4.61,25.58,1009.83,2003.00,3261.19,3156.01,3421.09,350.11,335.98,17.49,0000 0000 0000 0000 000000
2015-07-11 03:05:48,0.00,0.36,0.00,31.47,35.28,37.64,4.64,25.69,1009.87,2003.00,3261.01,3155.96,3420.99,350.10,335.86,17.52,0000 0000 0000 0000 000000
2015-07-11 03:10:50,0.04,0.36,0.00,31.47,35.30,37.64,4.60,25.67,1009.87,2003.00,3260.99,3155.60,3420.63,349.83,335.53,17.55,0000 0000 0000 0000 000000
2015-07-11 03:15:51,0.01,0.36,0.00,31.50,35.30,37.65,4.64,25.70,1009.84,2003.00,3260.94,3155.09,3420.06,349.44,335.27,17.58,0000 0000 0000 0000 000000
2015-07-11 03:20:52,0.02,0.36,0.00,31.50,35.30,37.65,4.61,25.54,1009.82,2003.00,3260.47,3155.00,3420.00,350.34,335.85,17.61,0000 0000 0000 0000 000000
2015-07-11 03:25:53,0.00,0.36,0.00,31.52,35.30,37.66,4.57,25.53,1009.81,2003.00,3260.24,3155.00,3420.00,350.10,335.86,17.64,0000 0000 0000 0000 000000
2015-07-11 03:30:55,-0.00,0.36,0.00,31.53,35.32,37.66,4.58,25.52,1009.81,2002.99,3260.03,3155.00,3419.99,349.50,335.27,17.67,0000 0000 0000 0000 000000
2015-07-11 03:35:56,0.00,0.36,0.00,31.55,35.32,37.66,4.67,25.52,1010.03,2002.98,3260.01,3154.96,3419.88,350.12,335.66,17.69,0000 0000 0000 0000 000000
2015-07-11 03:40:57,0.02,0.36,0.00,31.56,35.33,37.67,4.63,25.64,1010.25,2002.77,3259.88,3154.36,3419.17,350.29,336.00,17.72,0000 0000 0000 0000 000000
2015-07-11 03:45:58,-0.00,0.36,0.00,31.58,35.33,37.67,4.55,25.46,1010.27,2002.73,3259.83,3154.00,3418.97,349.78,335.68,17.75,0000 0000 0000 0000 000000
2015-07-11 03:50:59,-0.01,0.36,0.00,31.60,35.35,37.69,4.65,25.38,1010.27,2002.48,3259.27,3153.99,3418.81,350.39,336.04,17.78,0000 0000 0000 0000 000000
2015-07-11 03:56:01,-0.01,0.36,0.00,31.61,35.35,37.70,4.61,25.44,1010.26,2002.26,3259.02,3153.93,3418.35,350.30,335.98,17.81,0000 0000 0000 0000 000000
2015-07-11 04:01:02,0.00,0.36,0.00,31.62,35.36,37.72,4.58,25.46,1010.21,2002.12,3259.00,3153.60,3418.03,349.90,335.42,17.84,0000 0000 0000 0000 000000
2015-07-11 04:06:03,0.02,0.36,0.00,31.64,35.37,37.73,4.59,25.40,1010.24,2002.07,3258.98,3153.26,3418.00,350.28,336.00,17.87,0000 0000 0000 0000 000000
2015-07-11 04:11:04,0.03,0.36,0.00,31.66,35.38,37.74,4.59,25.34,1010.27,2002.13,3258.64,3153.10,3418.00,350.00,335.82,17.90,0000 0000 0000 0000 000000
2015-07-11 04:16:05,-0.00,0.36,0.00,31.67,35.40,37.75,4.59,25.38,1010.27,2002.06,3258.21,3153.01,3418.00,350.08,335.86,17.93,0000 0000 0000 0000 000000
2015-07-11 04:21:07,0.01,0.36,0.00,31.70,35.40,37.76,4.59,25.43,1010.27,2002.10,3258.03,3153.01,3417.95,349.94,335.66,17.96,0000 0000 0000 0000 000000
2015-07-11 04:26:08,-0.00,0.36,0.00,31.71,35.41,37.77,4.67,25.38,1010.27,2002.05,3258.00,3153.00,3417.61,350.14,335.52,17.99,0000 0000 0000 0000 000000
2015-07-11 04:31:10,0.01,0.36,0.00,31.73,35.42,37.78,4.57,25.34,1010.27,2002.02,3257.95,3153.00,3417.18,350.16,335.77,18.02,0000 0000 0000 0000 000000
2015-07-11 04:36:11,0.02,0.36,0.00,31.74,35.43,37.78,4.64,25.43,1010.27,2002.00,3257.46,3152.84,3417.01,350.26,335.84,18.05,0000 0000 0000 0000 000000
2015-07-11 04:41:12,0.03,0.36,0.00,31.75,35.45,37.79,4.58,25.57,1010.27,2002.00,3257.04,3152.40,3416.99,349.87,335.56,18.08,0000 0000 0000 0000 000000
2015-07-11 04:46:13,0.01,0.36,0.00,31.77,35.45,37.81,4.61,25.43,1010.27,2002.00,3257.00,3152.17,3416.99,350.28,335.86,18.10,0000 0000 0000 0000 000000
2015-07-11 04:51:14,0.00,0.36,0.00,31.79,35.47,37.82,4.55,25.43,1010.27,2002.00,3257.00,3152.07,3416.92,350.01,335.37,18.13,0000 0000 0000 0000 000000
2015-07-11 04:56:15,0.00,0.36,0.00,31.81,35.48,37.83,4.61,25.36,1010.27,2002.00,3257.00,3152.01,3416.74,349.88,335.47,18.16,0000 0000 0000 0000 000000
2015-07-11 05:01:17,0.01,0.36,0.00,31.82,35.50,37.84,4.63,25.44,1010.27,2002.00,3256.96,3152.00,3416.48,349.64,335.09,18.19,0000 0000 0000 0000 000000
2015-07-11 05:06:18,0.01,0.37,0.00,31.85,35.50,37.85,4.57,25.43,1010.27,2002.00,3256.84,3152.00,3416.04,349.56,334.96,18.22,0000 0000 0000 0000 000000
2015-07-11 05:11:20,0.01,0.37,0.00,31.87,35.52,37.87,4.59,25.42,1010.27,2001.99,3256.30,3151.97,3416.01,349.63,335.09,18.25,0000 0000 0000 0000 000000
2015-07-11 05:16:21,0.03,0.37,0.00,31.88,35.53,37.88,4.58,25.46,1010.26,2001.96,3256.01,3151.57,3415.95,349.89,335.23,18.28,0000 0000 0000 0000 000000
2015-07-11 05:21:22,0.01,0.37,0.00,31.90,35.55,37.89,4.58,25.45,1010.26,2001.91,3255.98,3151.07,3415.79,350.16,335.60,18.31,0000 0000 0000 0000 000000
2015-07-11 05:26:23,-0.01,0.37,0.00,31.92,35.56,37.89,4.64,25.36,1010.27,2001.80,3255.90,3151.01,3415.33,350.50,335.90,18.34,0000 0000 0000 0000 000000
2015-07-11 05:31:24,-0.01,0.37,0.00,31.94,35.57,37.91,4.54,25.44,1010.27,2001.65,3255.81,3151.00,3415.12,349.83,335.44,18.37,0000 0000 0000 0000 000000
2015-07-11 05:36:26,-0.02,0.37,0.00,31.96,35.59,37.92,4.62,25.44,1010.27,2001.49,3255.52,3150.99,3415.01,350.13,335.43,18.40,0000 0000 0000 0000 000000
2015-07-11 05:41:27,-0.03,0.36,0.00,31.98,35.60,37.94,4.65,25.57,1010.27,2001.10,3255.03,3150.95,3415.00,350.14,335.55,18.43,0000 0000 0000 0000 000000
2015-07-11 05:46:28,0.00,0.36,0.00,32.00,35.61,37.95,4.57,25.42,1010.27,2001.06,3255.00,3150.85,3414.96,349.87,335.04,18.46,0000 0000 0000 0000 000000
2015-07-11 05:51:29,0.01,0.37,0.00,32.01,35.62,37.96,4.60,25.40,1010.27,2001.08,3255.00,3150.78,3414.91,349.98,335.13,18.49,0000 0000 0000 0000 000000
2015-07-11 05:56:31,0.03,0.37,0.00,32.03,35.64,37.97,4.64,25.36,1010.27,2001.01,3254.93,3150.16,3414.33,349.74,335.06,18.51,0000 0000 0000 0000 000000
2015-07-11 06:01:32,0.01,0.37,0.00,32.06,35.65,37.98,4.55,25.47,1010.27,2001.00,3254.66,3150.01,3414.04,349.49,334.86,18.54,0000 0000 0000 0000 000000
2015-07-11 06:06:33,0.01,0.37,0.00,32.09,35.67,38.00,4.63,25.40,1010.28,2001.00,3254.16,3150.00,3414.00,350.16,335.35,18.57,0000 0000 0000 0000 000000
2015-07-11 06:11:34,0.00,0.37,0.00,32.10,35.68,38.02,4.63,25.39,1010.28,2001.00,3254.04,3150.00,3414.00,349.97,335.37,18.60,0000 0000 0000 0000 000000
2015-07-11 06:16:35,0.00,0.37,0.00,32.12,35.70,38.03,4.54,25.33,1010.28,2001.00,3254.00,3149.99,3413.99,349.26,334.54,18.63,0000 0000 0000 0000 000000
2015-07-11 06:21:36,0.00,0.37,0.00,32.14,35.71,38.05,4.56,25.43,1010.28,2000.99,3254.00,3149.97,3413.94,350.11,335.34,18.66,0000 0000 0000 0000 000000
2015-07-11 06:26:37,0.03,0.37,0.00,32.16,35.72,38.05,4.55,25.46,1010.27,2000.97,3253.95,3149.66,3413.45,349.36,334.60,18.69,0000 0000 0000 0000 000000
2015-07-11 06:31:38,0.02,0.37,0.00,32.19,35.74,38.07,4.56,25.42,1010.28,2000.77,3253.37,3149.07,3413.02,349.98,335.06,18.72,0000 0000 0000 0000 000000
2015-07-11 06:36:39,-0.03,0.37,0.00,32.21,35.75,38.08,4.50,25.47,1010.28,2000.51,3253.02,3149.00,3413.00,349.66,334.79,18.75,0000 0000 0000 0000 000000
2015-07-11 06:41:40,-0.03,0.37,0.00,32.23,35.77,38.09,4.55,25.45,1010.27,2000.26,3252.99,3148.99,3412.84,349.53,334.73,18.78,0000 0000 0000 0000 000000
2015-07-11 06:46:41,-0.01,0.37,0.00,32.25,35.79,38.11,4.59,25.43,1010.27,2000.16,3252.94,3148.93,3412.53,350.10,334.95,18.81,0000 0000 0000 0000 000000
2015-07-11 06:51:43,0.04,0.37,0.00,32.27,35.80,38.12,4.61,25.35,1010.27,2000.07,3252.58,3148.59,3412.07,350.48,335.30,18.84,0000 0000 0000 0000 000000
2015-07-11 06:56:44,0.01,0.37,0.00,32.29,35.82,38.13,4.59,25.44,1010.27,2000.02,3252.14,3148.20,3412.00,349.86,334.88,18.87,0000 0000 0000 0000 000000
2015-07-11 07:01:46,0.00,0.37,0.00,32.31,35.83,38.14,4.54,25.38,1010.27,2000.00,3252.01,3148.02,3411.99,349.78,334.85,18.89,0000 0000 0000 0000 000000
2015-07-11 07:06:47,0.00,0.37,0.00,32.33,35.85,38.15,4.54,25.32,1010.27,2000.00,3252.00,3148.00,3411.90,349.56,334.39,18.92,0000 0000 0000 0000 000000
2015-07-11 07:11:48,0.02,0.37,0.00,32.35,35.86,38.18,4.60,25.37,1010.27,2000.00,3251.96,3148.00,3411.42,349.62,334.48,18.95,0000 0000 0000 0000 000000
2015-07-11 07:16:49,0.02,0.37,0.00,32.37,35.88,38.19,4.61,25.42,1010.27,2000.00,3251.69,3147.93,3411.06,350.61,335.58,18.98,0000 0000 0000 0000 000000
2015-07-11 07:21:51,0.03,0.37,0.00,32.37,35.90,38.21,4.56,25.35,1010.28,1999.97,3251.16,3147.50,3411.00,349.93,334.65,19.01,0000 0000 0000 0000 000000
2015-07-11 07:26:52,0.01,0.37,0.00,32.39,35.91,38.23,4.59,25.36,1010.28,1999.95,3251.03,3147.15,3410.99,350.23,334.96,19.04,0000 0000 0000 0000 000000
2015-07-11 07:31:53,-0.03,0.37,0.00,32.40,35.92,38.24,4.55,25.27,1010.28,1999.74,3251.01,3147.01,3410.84,349.98,334.68,19.07,0000 0000 0000 0000 000000
2015-07-11 07:36:54,-0.04,0.37,0.00,32.40,35.94,38.26,4.59,25.44,1010.30,1999.37,3250.64,3146.98,3410.14,349.63,334.56,19.10,0000 0000 0000 0000 000000
2015-07-11 07:41:55,-0.02,0.37,0.00,32.42,35.95,38.28,4.53,25.43,1010.28,1999.12,3250.43,3146.95,3410.00,349.21,334.16,19.13,0000 0000 0000 0000 000000
2015-07-11 07:46:57,0.00,0.37,0.00,32.42,35.97,38.29,4.55,25.39,1010.29,1999.05,3250.35,3146.89,3410.00,349.81,334.64,19.16,0000 0000 0000 0000 000000
2015-07-11 07:51:58,0.03,0.37,0.00,32.43,35.99,38.31,4.63,25.36,1010.31,1999.03,3250.05,3146.53,3409.98,349.89,334.88,19.19,0000 0000 0000 0000 000000
2015-07-11 07:56:59,0.05,0.37,0.00,32.45,36.00,38.32,4.60,25.43,1010.29,1999.04,3249.57,3146.18,3409.76,349.90,334.95,19.22,0000 0000 0000 0000 000000
2015-07-11 08:02:00,0.00,0.37,0.00,32.45,36.01,38.34,4.59,25.32,1010.29,1999.00,3249.47,3146.01,3409.18,349.80,334.65,19.25,0000 0000 0000 0000 000000
2015-07-11 08:07:01,0.01,0.37,0.00,32.45,36.03,38.35,4.59,25.37,1010.31,1999.00,3249.16,3146.00,3409.01,349.94,334.87,19.28,0000 0000 0000 0000 000000
2015-07-11 08:12:02,0.00,0.37,0.00,32.46,36.04,38.36,4.60,25.23,1010.33,1999.00,3249.10,3145.92,3408.99,350.20,334.96,19.30,0000 0000 0000 0000 000000
2015-07-11 08:17:03,0.05,0.37,0.00,32.47,36.05,38.37,4.58,25.36,1010.32,1999.00,3248.75,3145.30,3408.57,350.20,334.78,19.33,0000 0000 0000 0000 000000
2015-07-11 08:22:04,0.03,0.37,0.00,32.47,36.06,38.38,4.55,25.36,1010.43,1999.00,3248.05,3145.00,3408.00,350.31,334.97,19.36,0000 0000 0000 0000 000000
2015-07-11 08:27:05,0.01,0.37,0.00,32.47,36.08,38.39,4.59,25.30,1010.63,1998.99,3248.00,3144.90,3407.85,349.93,334.74,19.39,0000 0000 0000 0000 000000
2015-07-11 08:32:07,0.02,0.37,0.00,32.47,36.09,38.40,4.51,25.36,1010.73,1998.97,3247.94,3144.67,3407.55,349.71,334.58,19.42,0000 0000 0000 0000 000000
2015-07-11 08:37:08,0.03,0.38,0.00,32.47,36.10,38.42,4.65,25.37,1010.76,1998.94,3247.53,3144.27,3407.08,350.54,335.51,19.45,0000 0000 0000 0000 000000
2015-07-11 08:42:09,-0.00,0.38,0.00,32.47,36.10,38.42,4.55,25.39,1010.75,1998.82,3247.04,3144.06,3407.01,349.79,334.94,19.48,0000 0000 0000 0000 000000
2015-07-11 08:47:10,-0.04,0.38,0.00,32.47,36.11,38.43,4.62,25.38,1010.76,1998.63,3247.04,3144.00,3406.99,349.91,334.88,19.51,0000 0000 0000 0000 000000
2015-07-11 08:52:11,-0.02,0.37,0.00,32.47,36.13,38.44,4.54,25.31,1010.76,1998.46,3247.00,3144.00,3406.95,349.65,334.59,19.54,0000 0000 0000 0000 000000
2015-07-11 08:57:13,-0.01,0.37,0.00,32.46,36.13,38.45,4.59,25.43,1010.76,1998.32,3246.98,3144.00,3406.79,349.70,334.62,19.57,0000 0000 0000 0000 000000
2015-07-11 09:02:14,-0.00,0.37,0.00,32.45,36.14,38.46,4.57,25.30,1010.76,1998.11,3246.78,3143.93,3406.32,350.15,335.00,19.60,0000 0000 0000 0000 000000
2015-07-11 09:07:15,0.02,0.37,0.00,32.45,36.15,38.46,4.61,25.42,1010.77,1998.03,3246.34,3143.64,3406.04,350.39,335.38,19.63,0000 0000 0000 0000 000000
2015-07-11 09:12:16,0.02,0.37,0.00,32.43,36.15,38.48,4.57,25.36,1010.77,1998.04,3246.03,3143.36,3406.00,349.75,334.85,19.66,0000 0000 0000 0000 000000
2015-07-11 09:17:18,0.01,0.38,0.00,32.42,36.15,38.48,4.49,25.34,1010.78,1998.03,3246.00,3143.08,3405.99,349.61,334.67,19.69,0000 0000 0000 0000 000000
2015-07-11 09:22:19,0.00,0.38,0.00,32.41,36.15,38.49,4.58,25.35,1010.78,1998.01,3245.99,3143.04,3405.98,349.74,335.16,19.71,0000 0000 0000 0000 000000
2015-07-11 09:27:20,0.09,0.38,0.00,32.40,36.16,38.49,4.56,25.34,1010.80,1998.00,3245.24,3142.64,3405.35,349.94,335.00,19.74,0000 0000 0000 0000 000000
2015-07-11 09:32:22,0.16,0.38,0.00,32.40,36.17,38.49,4.59,25.32,1010.78,1998.05,3243.23,3141.07,3403.10,350.44,335.48,19.77,0000 0000 0000 0000 000000
2015-07-11 09:37:23,0.00,0.38,0.00,32.37,36.17,38.49,4.57,25.45,1010.78,1998.05,3243.00,3140.96,3402.99,349.71,335.04,19.80,0000 0000 0000 0000 000000
2015-07-11 09:42:24,0.02,0.38,0.00,32.37,36.17,38.50,4.59,25.48,1010.78,1998.04,3242.92,3140.83,3402.83,349.89,334.93,19.83,0000 0000 0000 0000 000000
2015-07-11 09:47:25,0.03,0.38,0.00,32.35,36.18,38.50,4.58,25.40,1010.81,1998.05,3242.55,3140.56,3402.43,350.03,335.07,19.86,0000 0000 0000 0000 000000
2015-07-11 09:52:27,0.03,0.39,0.00,32.34,36.18,38.50,4.60,25.42,1010.80,1998.06,3242.10,3140.28,3402.10,350.01,334.95,19.89,0000 0000 0000 0000 000000
2015-07-11 09:57:28,0.01,0.39,0.00,32.32,36.17,38.49,4.57,25.39,1010.78,1998.11,3242.00,3140.08,3402.01,350.11,335.15,19.92,0000 0000 0000 0000 000000
2015-07-11 10:02:29,0.00,0.39,0.00,32.30,36.17,38.49,4.62,25.45,1010.78,1998.06,3241.90,3140.01,3402.00,349.92,335.18,19.95,0000 0000 0000 0000 000000
2015-07-11 10:07:31,0.02,0.39,0.00,32.29,36.17,38.49,4.58,25.50,1010.80,1998.10,3241.45,3140.00,3401.98,350.14,335.48,19.98,0000 0000 0000 0000 000000
2015-07-11 10:12:32,0.01,0.39,0.00,32.27,36.16,38.48,4.60,25.62,1010.77,1998.09,3241.06,3140.00,3401.77,349.88,335.11,20.01,0000 0000 0000 0000 000000
2015-07-11 10:17:34,0.01,0.39,0.00,32.25,36.15,38.48,4.62,25.53,1010.82,1998.10,3241.00,3139.99,3401.34,350.02,335.10,20.04,0000 0000 0000 0000 000000
2015-07-11 10:22:35,0.01,0.39,0.00,32.22,36.15,38.48,4.56,25.58,1010.85,1998.06,3240.88,3139.86,3401.03,350.03,335.31,20.07,0000 0000 0000 0000 000000
2015-07-11 10:27:36,0.03,0.39,0.00,32.20,36.15,38.47,4.58,25.59,1010.83,1998.16,3240.64,3139.81,3401.00,350.09,335.25,20.10,0000 0000 0000 0000 000000
2015-07-11 10:32:37,0.02,0.39,0.00,32.19,36.15,38.46,4.53,25.52,1010.83,1998.18,3240.16,3139.64,3401.00,349.52,334.84,20.12,0000 0000 0000 0000 000000
2015-07-11 10:37:39,0.01,0.39,0.00,32.17,36.14,38.45,4.54,25.59,1010.79,1998.27,3240.04,3139.53,3401.00,349.66,334.87,20.15,0000 0000 0000 0000 000000
2015-07-11 10:42:40,0.02,0.39,0.00,32.15,36.13,38.45,4.59,25.61,1010.80,1998.25,3239.99,3139.16,3400.96,350.13,335.46,20.18,0000 0000 0000 0000 000000
2015-07-11 10:47:41,0.04,0.39,0.00,32.13,36.13,38.45,4.60,25.53,1010.97,1998.50,3239.97,3139.07,3400.86,349.94,335.35,20.21,0000 0000 0000 0000 000000
2015-07-11 10:52:43,0.03,0.39,0.00,32.11,36.12,38.44,4.61,25.58,1011.00,1998.47,3239.50,3139.01,3400.44,349.85,335.24,20.24,0000 0000 0000 0000 000000
2015-07-11 10:57:44,0.05,0.39,0.00,32.10,36.10,38.44,4.62,25.54,1011.14,1998.69,3239.11,3139.00,3400.18,350.45,335.81,20.27,0000 0000 0000 0000 000000
2015-07-11 11:02:45,0.01,0.39,0.00,32.07,36.10,38.43,4.57,25.47,1011.20,1998.78,3239.01,3139.00,3400.02,350.15,335.68,20.30,0000 0000 0000 0000 000000
2015-07-11 11:07:46,0.01,0.39,0.00,32.05,36.09,38.42,4.62,25.45,1011.19,1998.80,3238.99,3139.00,3400.00,350.04,335.73,20.33,0000 0000 0000 0000 000000
2015-07-11 11:12:47,0.01,0.40,0.00,32.03,36.08,38.40,4.58,25.43,1011.19,1998.90,3238.98,3138.99,3400.00,349.96,335.50,20.36,0000 0000 0000 0000 000000
2015-07-11 11:17:49,0.01,0.40,0.00,32.01,36.07,38.41,4.58,25.51,1011.22,1998.94,3238.90,3138.98,3400.00,349.87,335.39,20.39,0000 0000 0000 0000 000000
2015-07-11 11:22:50,0.00,0.40,0.00,31.98,36.05,38.39,4.67,25.45,1011.24,1998.95,3238.73,3138.98,3400.00,350.36,336.01,20.42,0000 0000 0000 0000 000000
2015-07-11 11:27:51,0.02,0.40,0.00,31.95,36.05,38.38,4.61,25.52,1011.24,1998.96,3238.37,3138.92,3399.99,349.62,335.40,20.45,0000 0000 0000 0000 000000
2015-07-11 11:32:52,0.01,0.40,0.00,31.93,36.03,38.37,4.53,25.49,1011.24,1998.96,3238.09,3138.90,3399.95,349.17,334.94,20.48,0000 0000 0000 0000 000000
2015-07-11 11:37:53,-0.01,0.40,0.00,31.91,36.02,38.36,4.62,25.50,1011.25,1998.98,3238.25,3138.93,3399.96,349.94,335.64,20.51,0000 0000 0000 0000 000000
2015-07-11 11:42:54,-0.01,0.40,0.00,31.89,36.00,38.34,4.61,25.53,1011.25,1998.98,3238.56,3138.94,3399.98,350.15,335.90,20.53,0000 0000 0000 0000 000000
2015-07-11 11:47:55,-0.00,0.40,0.00,31.86,36.00,38.32,4.63,25.48,1011.25,1998.99,3238.97,3138.98,3399.99,350.01,335.81,20.56,0000 0000 0000 0000 000000
2015-07-11 11:52:56,0.00,0.40,0.00,31.84,35.98,38.30,4.58,25.51,1011.25,1998.99,3238.97,3138.99,3399.99,349.73,335.75,20.59,0000 0000 0000 0000 000000
2015-07-11 11:57:57,0.00,0.40,0.00,31.81,35.96,38.28,4.65,25.43,1011.26,1998.99,3238.91,3138.99,3399.99,350.37,336.21,20.62,0000 0000 0000 0000 000000
2015-07-11 12:02:59,0.00,0.40,0.00,31.78,35.95,38.27,4.58,25.46,1011.25,1998.99,3238.81,3138.99,3399.99,350.12,335.93,20.65,0000 0000 0000 0000 000000
2015-07-11 12:08:00,0.00,0.40,0.00,31.75,35.93,38.27,4.53,25.44,1011.25,1998.99,3238.59,3138.99,3399.99,349.89,335.70,20.68,0000 0000 0000 0000 000000
2015-07-11 12:13:02,0.00,0.40,0.00,31.73,35.91,38.23,4.67,25.54,1011.25,1999.00,3238.64,3138.99,3399.99,349.93,335.83,20.71,0000 0000 0000 0000 000000
2015-07-11 12:18:03,0.01,0.40,0.00,31.70,35.90,38.23,4.60,25.47,1011.25,1999.02,3238.54,3138.99,3400.00,350.19,336.22,20.74,0000 0000 0000 0000 000000
2015-07-11 12:23:04,0.01,0.40,0.00,31.67,35.88,38.23,4.59,25.40,1011.25,1999.10,3238.50,3138.99,3400.01,350.34,336.35,20.77,0000 0000 0000 0000 000000
2015-07-11 12:28:05,0.04,0.40,0.00,31.65,35.86,38.22,4.55,25.47,1011.25,1999.29,3238.29,3139.00,3400.00,349.72,335.77,20.80,0000 0000 0000 0000 000000
2015-07-11 12:33:06,-0.00,0.40,0.00,31.62,35.84,38.21,4.57,25.43,1011.24,1999.30,3238.26,3139.00,3400.00,349.49,335.63,20.83,0000 0000 0000 0000 000000
2015-07-11 12:38:07,0.06,0.40,0.00,31.59,35.83,38.15,4.68,25.55,1011.19,1999.56,3238.09,3139.02,3400.02,350.00,336.18,20.86,0000 0000 0000 0000 000000
2015-07-11 12:43:09,0.04,0.40,0.00,31.56,35.80,38.15,4.58,25.47,1010.94,1999.81,3238.01,3139.03,3400.03,349.84,335.74,20.89,0000 0000 0000 0000 000000
2015-07-11 12:48:10,0.01,0.40,0.00,31.53,35.78,38.12,4.63,25.50,1010.86,1999.97,3238.00,3139.02,3400.04,349.86,335.89,20.92,0000 0000 0000 0000 000000
2015-07-11 12:53:11,-0.01,0.40,0.00,31.50,35.76,38.13,4.60,25.42,1010.77,1999.99,3238.01,3139.13,3400.14,349.93,335.91,20.94,0000 0000 0000 0000 000000
2015-07-11 12:58:12,-0.01,0.40,0.00,31.46,35.75,38.09,4.61,25.42,1010.77,1999.99,3238.00,3139.26,3400.35,350.05,336.03,20.97,0000 0000 0000 0000 000000